Location: Praha
(50.0830°N, 14.4670°E)
Time: 07:14:04
(UTC+02:00)

ISS - Pass Details

Date: 01 July 2022
Orbit: 414 x 420 km, 51.6° (Epoch: 02 July)

Event Time Altitude Azimuth Distance (km) Brightness Sun altitude
Exits shadow 03:22:09 16° 195° (SSW) 1,167 -2.1 -10.8°
Maximum altitude 03:24:05 28° 146° (SE) 825 -2.5 -10.7°
Drops below altitude 10° 03:27:00 10° 85° (E) 1,501 -0.4 -10.4°
Sets 03:29:17 0° 74° (ENE) 2,369 0.9 -10.2°
